{"data":{"norad_id":61529,"intl_designator":"2024-183W","name":"STARLINK-32351","alt_names":[],"object_type":"PAYLOAD","status":"ACTIVE","operator":null,"country":"US","launch_date":"2024-10-15","launch_site_code":"AFETR","launch_vehicle":null,"mission":null,"orbit_class":"UNKNOWN","rcs_meters":null,"size_class":null,"mass_kg":null,"dimensions":null,"purposes":["comms"],"wikipedia_slug":null,"has_3d_model":false,"image_url":null,"decayed_at":null,"tle_current":{"epoch":"2026-05-24T17:15:07.026912Z","epoch_age_seconds":102641,"freshness":"FRESH","line1":"1 61529U 24183W   26144.71883133 -.00000268  00000+0  30598-5 0  9998","line2":"2 61529  53.1595 146.4132 0000974  90.0581 270.0531 15.30184704 91334","mean_motion":15.30184704,"eccentricity":9.74e-5,"inclination_deg":53.1595,"raan_deg":146.4132,"arg_perigee_deg":90.0581,"mean_anomaly_deg":270.0531,"bstar":3.0598e-6,"rev_number":9133,"period_min":94.106286400312,"perigee_km":474.59321995868,"apogee_km":475.92826183861,"semimajor_km":6853.3977408986,"source":"CELESTRAK","updated_at":"2026-05-25T13:38:19.396352Z"}}}